AEA40WM LEMD-LECO

Flight info

Callsign AEA40WM
Flight time N/A
Altitude 29000
Route ZMR7L ZMR N733 DESAT/N0444F300 DCT LOMDA LOMDA4A
Aircraft B738/M-SDE2E3FGHIRWXY/LB1

Departure

Time N/A
Airport Adolfo Suárez Madrid–Barajas Airport (LEMD)

Arrival

Time 2026-05-08 20:15
Airport A Coruña Airport (LECO)
Time Latitude Longitude Altitude Speed Heading
2026-05-08 19:55 42.75822 -7.13246 20338 ft 354 kts 308°
2026-05-08 19:56 42.77341 -7.15866 19979 ft 351 kts 308°
2026-05-08 19:56 42.78845 -7.18464 19628 ft 349 kts 308°
2026-05-08 19:56 42.80342 -7.21051 19277 ft 346 kts 308°
2026-05-08 19:56 42.81827 -7.23618 18927 ft 344 kts 308°
2026-05-08 19:57 42.83302 -7.26170 18586 ft 342 kts 308°
2026-05-08 19:57 42.84767 -7.28707 18237 ft 340 kts 308°
2026-05-08 19:57 42.86209 -7.31243 17860 ft 338 kts 307°
2026-05-08 19:57 42.87618 -7.33807 17502 ft 337 kts 306°
2026-05-08 19:58 42.89007 -7.36366 17151 ft 335 kts 306°
2026-05-08 19:58 42.90389 -7.38916 16809 ft 333 kts 306°
2026-05-08 19:58 42.91761 -7.41447 16465 ft 331 kts 306°
2026-05-08 19:58 42.93126 -7.43966 16129 ft 329 kts 306°
2026-05-08 19:59 42.94484 -7.46467 15793 ft 327 kts 306°
2026-05-08 19:59 42.95831 -7.48948 15461 ft 324 kts 306°
2026-05-08 19:59 42.97167 -7.51413 15131 ft 322 kts 306°
2026-05-08 19:59 42.98498 -7.53866 14801 ft 320 kts 306°
2026-05-08 20:00 42.99821 -7.56308 14476 ft 319 kts 306°
2026-05-08 20:00 43.01136 -7.58735 14148 ft 317 kts 306°
2026-05-08 20:00 43.02443 -7.61152 13821 ft 315 kts 306°
2026-05-08 20:00 43.03739 -7.63550 13498 ft 313 kts 306°
2026-05-08 20:01 43.05029 -7.65937 13177 ft 311 kts 306°
2026-05-08 20:01 43.06310 -7.68309 12858 ft 309 kts 306°
2026-05-08 20:01 43.07581 -7.70666 12540 ft 308 kts 306°
2026-05-08 20:01 43.08848 -7.73016 12224 ft 306 kts 306°
2026-05-08 20:02 43.10107 -7.75352 11908 ft 304 kts 306°
2026-05-08 20:02 43.11360 -7.77680 11593 ft 303 kts 306°
2026-05-08 20:02 43.12603 -7.79991 11279 ft 301 kts 306°
2026-05-08 20:02 43.13840 -7.82288 10967 ft 299 kts 306°
2026-05-08 20:03 43.15070 -7.84580 10656 ft 298 kts 306°
2026-05-08 20:03 43.16293 -7.86863 10345 ft 296 kts 306°
2026-05-08 20:03 43.17501 -7.89117 10162 ft 290 kts 306°
2026-05-08 20:03 43.18678 -7.91314 10027 ft 282 kts 306°
2026-05-08 20:04 43.19835 -7.93476 9766 ft 282 kts 306°
2026-05-08 20:04 43.20998 -7.95653 9493 ft 283 kts 306°
2026-05-08 20:04 43.22158 -7.97825 9203 ft 282 kts 306°
2026-05-08 20:04 43.23313 -7.99988 8917 ft 280 kts 306°
2026-05-08 20:05 43.24465 -8.02145 8632 ft 280 kts 306°
2026-05-08 20:05 43.25610 -8.04291 8345 ft 279 kts 306°
2026-05-08 20:05 43.26752 -8.06434 8054 ft 277 kts 306°
2026-05-08 20:05 43.27871 -8.08536 7773 ft 276 kts 305°
2026-05-08 20:06 43.28252 -8.09252 7679 ft 276 kts 306°
2026-05-08 20:06 43.29307 -8.11233 7414 ft 275 kts 306°
2026-05-08 20:06 43.30118 -8.12759 7210 ft 274 kts 306°
2026-05-08 20:07 43.31236 -8.14862 6941 ft 272 kts 306°
2026-05-08 20:07 43.32346 -8.16952 6670 ft 270 kts 305°
2026-05-08 20:07 43.33446 -8.19028 6405 ft 268 kts 306°
2026-05-08 20:07 43.34540 -8.21088 6130 ft 266 kts 305°
2026-05-08 20:08 43.35628 -8.23139 5862 ft 265 kts 305°
2026-05-08 20:08 43.36708 -8.25180 5603 ft 263 kts 305°
2026-05-08 20:08 43.37773 -8.27192 5444 ft 255 kts 305°
2026-05-08 20:08 43.38734 -8.29145 5343 ft 240 kts 294°
2026-05-08 20:09 43.38986 -8.31306 5221 ft 224 kts 262°
2026-05-08 20:09 43.38595 -8.33295 5044 ft 211 kts 245°
2026-05-08 20:09 43.37904 -8.35080 4723 ft 207 kts 240°
2026-05-08 20:09 43.37193 -8.36765 4430 ft 204 kts 239°
2026-05-08 20:10 43.36493 -8.38431 4280 ft 201 kts 240°
2026-05-08 20:10 43.35791 -8.40115 4080 ft 206 kts 240°
2026-05-08 20:10 43.35082 -8.41834 3862 ft 206 kts 240°
2026-05-08 20:10 43.34390 -8.43518 3643 ft 200 kts 240°
2026-05-08 20:11 43.33722 -8.45150 3428 ft 192 kts 240°
2026-05-08 20:11 43.33076 -8.46730 3215 ft 187 kts 240°
2026-05-08 20:11 43.32660 -8.47748 3088 ft 182 kts 240°
2026-05-08 20:11 43.32055 -8.49226 2926 ft 174 kts 240°
2026-05-08 20:12 43.31479 -8.50632 2783 ft 162 kts 240°
2026-05-08 20:12 43.30721 -8.51716 2636 ft 161 kts 201°
2026-05-08 20:12 43.29639 -8.51725 2609 ft 159 kts 159°
2026-05-08 20:12 43.28815 -8.50760 2588 ft 159 kts 120°
2026-05-08 20:13 43.28420 -8.49332 2530 ft 162 kts 110°
2026-05-08 20:13 43.28041 -8.47905 2518 ft 159 kts 111°
2026-05-08 20:13 43.27658 -8.46467 2417 ft 162 kts 111°
2026-05-08 20:13 43.27258 -8.45017 2157 ft 164 kts 112°
2026-05-08 20:14 43.26840 -8.43531 1696 ft 165 kts 112°
2026-05-08 20:14 43.26503 -8.42094 1405 ft 156 kts 98°
2026-05-08 20:14 43.26728 -8.40691 1155 ft 155 kts 55°
2026-05-08 20:14 43.27593 -8.39815 879 ft 158 kts 27°
2026-05-08 20:15 43.28546 -8.39061 536 ft 156 kts 30°
2026-05-08 20:15 43.29455 -8.38332 339 ft 144 kts 31°
2026-05-08 20:15 43.30167 -8.37754 340 ft 88 kts 31°
2026-05-08 20:15 43.30509 -8.37478 340 ft 37 kts 30°
2026-05-08 20:16 43.30632 -8.37390 342 ft 8 kts 54°
2026-05-08 20:16 43.30623 -8.37370 342 ft 2 kts 184°
2026-05-08 20:16 43.30599 -8.37391 342 ft 7 kts 214°
2026-05-08 20:16 43.30545 -8.37442 340 ft 11 kts 214°
2026-05-08 20:17 43.30471 -8.37503 340 ft 13 kts 212°
2026-05-08 20:17 43.30386 -8.37576 339 ft 16 kts 211°
2026-05-08 20:17 43.30286 -8.37660 338 ft 18 kts 210°
2026-05-08 20:17 43.30196 -8.37732 340 ft 15 kts 210°
2026-05-08 20:18 43.30103 -8.37807 340 ft 16 kts 210°
2026-05-08 20:18 43.30004 -8.37886 341 ft 15 kts 210°
2026-05-08 20:18 43.29939 -8.37962 342 ft 12 kts 251°
2026-05-08 20:18 43.29981 -8.38057 340 ft 13 kts 332°
2026-05-08 20:19 43.30057 -8.38074 340 ft 9 kts
2026-05-08 20:19 43.30104 -8.38056 339 ft 6 kts 27°
2026-05-08 20:19 43.30140 -8.38059 339 ft 5 kts 329°
2026-05-08 20:19 43.30153 -8.38069 339 ft 1 kts 327°
2026-05-08 20:20 43.30156 -8.38073 339 ft 0 kts 325°
2026-05-08 20:20 43.30157 -8.38073 339 ft 0 kts 325°